Weather in Chystovodivka

Ukraine / Kharkiv Region     49°23′56″N   37°20′13″E
temp.,
°C
wind,
m/s
gust,
m/s
humid.,
%
clouds,
%
prec.,
mm/h
press.,
hPa
HPBL,
m
10 may, mon
mon1000:00+4nw410835 0.0 1022219
03:00+3nw411855 0.0 1023235
06:00+4nw613805 0.0 1023342
09:00+10nnw812574 0.0 10221597
12:00+13nnw101245100 0.0 10212342
15:00+13n91352100 0.0 10191988
18:00+11nnw101557100 0.0 10171411
21:00+8nnw111984100 1.0 1015917
11 may, tue
tue1100:00+9n101989100 1.2 1013738
03:00+10nne91792100 1.3 1013825
06:00+9nne61296100 0.3 1014980
09:00+8ene51092100 0.9 1015580
12:00+10ene81072100 0.1 10161460
15:00+11ne7116497 0.1 10161628
18:00+9ene9127857 0.3 10161124
21:00+7ene111690100 0.6 1017979
12 may, wed
wed1200:00+7e91487100 0.0 1018969
03:00+7e81387100 0.1 10181069
06:00+7e71194100 1.6 10181099
09:00+8e71289100 2.5 10181271
12:00+8ese6993100 1.4 10171097
15:00+9se7118878 2.7 1016737
18:00+10se8149110 1.1 1016600
21:00+9ese410947 1.5 1016271
13 may, thu
thu1300:00+9ese4993100 0.0 1016226
03:00+9ese369384 0.0 1016134
06:00+9ese359224 0.0 101797
09:00+15ese46745 0.0 1016572
12:00+20se565625 0.0 10161349
15:00+21ese5749100 0.0 10151776
18:00+18e4970100 0.0 1014242
21:00+15e512795 0.0 1014222
14 may, fri
fri1400:00+13ese4128816 0.0 1014208
03:00+13ese512908 0.0 1013218
06:00+14ese5119085 0.0 1013239
09:00+20se81371100 0.0 1011529
12:00+23se6961100 0.0 1012951
15:00+25s6852100 0.0 10111528
18:00+25s366241 0.0 1010300
21:00+19sse3376100 0.0 101132